weather.gov     
National Weather Service

Regional Weather Roundup
NWS Homepage
This page is being discontinued on March 12, 2014.
The same data is available at this site. Please update your bookmarks.
Thank you, and we apologize for the inconvenience.
Please send an email to SR-SRH.Webmaster@noaa.gov with any concerns.


Current Version
Previous Version:    01  02  03  04  05  06  07  08  09  10  11  12  13  14  15  16  17  18  19  20  21  22  23  24  25  26  27  28  29  30  
[Printable]
831
ASUS42 KCAE 211210
RWRCAE
REGIONAL WEATHER ROUNDUP
NATIONAL WEATHER SERVICE COLUMBIA SC
800 AM EDT SUN SEP 21 2014

NOTE: "FAIR" INDICATES FEW OR NO CLOUDS BELOW 12,000 FEET WITH NO
SIGNIFICANT WEATHER AND/OR OBSTRUCTIONS TO VISIBILITY.

NOT ALL STATIONS ARE QUALITY CONTROLLED BY THE NATIONAL
WEATHER SERVICE. USE DATA WITH CAUTION...ESPECIALLY
DEWPOINT OBSERVATIONS.

SCZ001>056-GAZ040-063>065-077-211300-
...UPSTATE SOUTH CAROLINA...

CITY           SKY/WX    TMP DP  RH WIND       PRES   REMARKS
ANDERSON       CLEAR     60  58  92 CALM      30.01R
6HR MIN TEMP:  57; 6HR MAX TEMP:  63;

LIBERTY        FAIR      55  55 100 MISG      30.00S FOG
6HR MIN TEMP:  55; 6HR MAX TEMP:  81;

SPARTANBURG    FAIR      61 N/A N/A CALM      29.99R
CLEMSON        CLEAR     62  57  83 W5        30.02R
6HR MIN TEMP:  62; 6HR MAX TEMP:  67;

GREENVILLE     PTCLDY    61  58  90 CALM      30.01R
6HR MIN TEMP:  61; 6HR MAX TEMP:  64;

GREENWOOD      CLEAR     61  58  90 CALM      30.02R
6HR MIN TEMP:  59; 6HR MAX TEMP:  62;

GREER          CLEAR     60  58  92 SW3       29.99R
6HR MIN TEMP:  58; 6HR MAX TEMP:  62;

ROCK HILL      CLEAR     60  59  96 CALM      29.98R
6HR MIN TEMP:  58; 6HR MAX TEMP:  61;

CHESTER        FAIR      64  59  82 CALM      30.03S
LAURENS        FAIR      59 N/A N/A CALM      30.00S


...CENTRAL SOUTH CAROLINA...

CITY           SKY/WX    TMP DP  RH WIND       PRES   REMARKS
COLUMBIA APT   PTCLDY    62  59  90 W3        29.97R
6HR MIN TEMP:  61; 6HR MAX TEMP:  69;

COLUMBIA OWENS CLEAR     64  60  87 CALM      29.98R
6HR MIN TEMP:  62; 6HR MAX TEMP:  68;

DARLINGTON     SUNNY     63  57  82 NW7       29.94R
6HR MIN TEMP:  63; 6HR MAX TEMP:  68;

FLORENCE       MOSUNNY   66  60  81 NW8       29.93R
6HR MIN TEMP:  65; 6HR MAX TEMP:  70;

MCENTIRE ANGB  MOCLDY    59  58  98 NW6       29.97R
6HR MIN TEMP:  58; 6HR MAX TEMP:  64;

ORANGEBURG     CLEAR     62  59  90 NW5       29.97R
6HR MIN TEMP:  62; 6HR MAX TEMP:  67;

SUMTER SHAW    CLEAR     63  59  87 NW8       29.94R
6HR MIN TEMP:  63; 6HR MAX TEMP:  68;

NEWBERRY       FAIR      57  57 100 CALM      30.02R FOG
AIKEN          FAIR      61  61 100 CALM      30.03R
BARNWELL       FAIR      59  57  94 CALM      30.00R
MANNING        FAIR      63  63 100 CALM      29.95R
CAMDEN         FAIR      61  59  94 CALM      29.97R
LANCASTER      RAIN      59  59 100 CALM      29.97S
WINNSBORO      FAIR      59  59 100 NW3       29.98R FOG


...EASTERN AND COASTAL SOUTH CAROLINA...

CITY           SKY/WX    TMP DP  RH WIND       PRES   REMARKS
MYRTLE BEACH   PTSUNNY   68  64  88 NW9       29.88R
N MYRTLE BCH   CLOUDY    69  66  90 NW7       29.87R
6HR MIN TEMP:  68; 6HR MAX TEMP:  70; 6HR PCP:  0.03;

CONWAY         FAIR      64  64 100 W3        29.90R
MARION         FAIR      64  61  88 NW5       29.92R
HARTSVILLE     FAIR      64  59  82 CALM      29.95R
FLORENCE       MOSUNNY   66  60  81 NW8       29.93R
6HR MIN TEMP:  65; 6HR MAX TEMP:  70;

DARLINGTON     SUNNY     63  57  82 NW7       29.94R
6HR MIN TEMP:  63; 6HR MAX TEMP:  68;

CHARLESTON APT MOSUNNY   67  62  84 NW6       29.95R
6HR MIN TEMP:  66; 6HR MAX TEMP:  72;

MOUNT PLEASANT FAIR      68  64  88 NW8       29.94R
WALTERBORO     MOSUNNY   63 N/A N/A CALM      29.98R
BEAUFORT       CLEAR     66  60  81 S8        29.97R
6HR MIN TEMP:  65; 6HR MAX TEMP:  70;



...EASTERN GEORGIA...

CITY           SKY/WX    TMP DP  RH WIND       PRES   REMARKS
AUGUSTA BUSH F CLEAR     58  57  97 CALM      30.00R
6HR MIN TEMP:  57; 6HR MAX TEMP:  62;

AUGUSTA DANIEL CLEAR     66  62  87 NW6       30.01R
6HR MIN TEMP:  65; 6HR MAX TEMP:  69;

THOMSON        CLEAR     61  61 100 W3        30.06R
6HR MIN TEMP:  58; 6HR MAX TEMP:  63;

WASHINGTON     FAIR      63  63 100 CALM      30.02R
CLAXTON        FAIR     N/A N/A N/A CALM      30.01R
SYLVANIA       SUNNY     63  62  97 CALM      30.00R FOG
6HR MIN TEMP:  63; 6HR MAX TEMP:  68;

STATESBORO     CLEAR     62  62 100 CALM      30.00R
6HR MIN TEMP:  60; 6HR MAX TEMP:  64;

SAVANNAH       PTCLDY    63  60  90 W3        29.99R
6HR MIN TEMP:  63; 6HR MAX TEMP:  68;



...SOUTHERN NORTH CAROLINA...

CITY           SKY/WX    TMP DP  RH WIND       PRES   REMARKS
CHARLOTTE      PTCLDY    60  57  89 NW5       29.98R
6HR MIN TEMP:  57; 6HR MAX TEMP:  62;

MONROE         CLEAR     61  58  90 W5        29.96S
6HR MIN TEMP:  58; 6HR MAX TEMP:  65;

WADESBORO      SUNNY     60  58  94 CALM      29.95R
6HR MIN TEMP:  58; 6HR MAX TEMP:  63;

ROCKINGHAM     SUNNY     62  59  90 NW3       29.93R
6HR MIN TEMP:  61; 6HR MAX TEMP:  67;

RUTHERFORDTON  CLEAR     55  55  99 NW3       30.01R FOG
6HR MIN TEMP:  55; 6HR MAX TEMP:  60;

ASHEVILLE      FOG       55  54  96 CALM      30.06S VSB 1/4
6HR MIN TEMP:  54; 6HR MAX TEMP:  57;


$$




U.S. Dept. of Commerce
NOAA National Weather Service
1325 East West Highway
Silver Spring, MD 20910
E-mail: w-nws.webmaster@noaa.gov
Page last modified: May 16, 2007
NATIONAL WEATHER SERVICE: for Safety, for Work, for Fun - FOR LIFE